COSMOS 2251 DEB, 35287

Orbit data source: Space-Track

COSMOS 2251 DEB, 35287 is space debris in LEO originally from a launch on Wed, 16 Jun 1993 UTC launched from the Plesetsk Missile And Space Complex (PKMTR). The debris from Iridium 33, an American commercial communications satellite, has been tracked extensively since its accidental collision with the defunct Russian satellite Cosmos 2251 in 2009. This event, occurring at high speed in low Earth orbit (LEO), generated thousands of pieces of space debris, significantly increasing the risk of further collisions. The Iridium 33 debris cloud has impacted space traffic management and orbital debris mitigation strategies, making it a subject of ongoing study in space situational awareness.

Loading next visibility...
Identifier
35287, 1993-036AJR
Orbit
LEO
Country
Flag of CISCIS
Related business
Manufacturer
Unknown
Mission
Spacecraft
Bus & Motor
Unknown
Mass
Unknown
Launch date (UTC)
1993-06-16 (33 years ago)
Launch vehicle
Unknown
Launch site
Plesetsk Missile And Space Complex (PKMTR)
Object type
Payload
Rocket body
Debris
Shape & HBR
Unknown shape, 0.1 m
Radar Cross Section
Small (<0.1 m²)

Expand to show TLE details & history
Last TLE update: 7 hours ago

TLE from 7 hours ago
0 COSMOS 2251 DEB
1 35287U 93036AJR 26037.36307659  .00000586  00000-0  20858-3 0  9998
2 35287  74.0302 173.9220 0019092 262.0808 128.3306 14.36433002876914
Epoch: 2026-02-06T08:42Z
TLE epoch observation values (Epoch: 2026-02-06T08:42:49.817Z)
Latitude
29.33963°
Longitude
-84.08079°
Altitude
782.125 km
Speed
7.461 km/s
True Right ascension
12h 12m 30s
True Declination
29° 11' 37"
Sunlit
Object was in full shadow at epoch
Visualization orbit readout
Latitude
Unknown
Longitude
Unknown
Altitude
Unknown
Speed
Unknown
Apparent Right ascension
Unknown
Apparent Declination
Unknown
Sunlit
N/A
Visualization observer readout
Local Sidereal Time
18:00:13
Azimuth
Unknown
Elevation
Unknown
Doppler factor
Unknown
Orbital elements
Apogee altitude
781.575 km
Perigee altitude
754.289 km
Semi-major axis
7,146.069 km
Eccentricity
0.00191
Inclination
74.0302°
RAAN
173.922°
Arg. of periapsis
262.0808°
True anomaly
128.50197°
Mean anomaly
128.3306°
Eccentric anomaly
128.41631°
Mean motion
3.59288 °/min
Orbital period
100.2 mins
BSTAR
0.00020858
Loading maneuver chart data...
Computing Atmospheric mass density...

Documentation

Showing up to 5 results
|